Other Public Products
Issued by NWS Grand Forks, ND

Home | Current Version | Previous Version | Text Only | Print | Product List | Glossary Off
Versions: 1 2 3 4 5 6 7 8 9 10 11 12 13 14 15 16 17 18 19 20 21 22 23 24 25 26 27 28 29 30 31 32 33 34 35 36 37 38 39 40 41 42 43 44 45 46 47 48 49 50

000
FPUS83 KFGF 182031
OPUFGF
PRAIRIE TO PINES WEATHER ROUNDUP
NATIONAL WEATHER SERVICE EASTERN NORTH DAKOTA/GRAND FORKS ND
200 PM CST SAT NOV 18 2017

 **SATELLITE DATA USED TO AUGMENT SKY COVER AT AUTOMATED STATIONS**
 *****  WEATHER ACROSS EASTERN NORTH DAKOTA  *****

CITY           SKY/WX    TMP DP  RH WIND       PRES   REMARKS
GRAND FORKS    FAIR      20  10  65 NW17      30.03S WCI   5
GRND FORKS AFB FAIR      20   8  59 NW16      30.03R WCI   5
GRND FORKS NWS   N/A     21 N/A N/A NW16        N/A  WCI   7
BUXTON           N/A     20  10  63 NW17        N/A  WCI   6
DEVILS LAKE    FAIR      17   8  67 NW23      30.02F WCI  -1
FARGO          FAIR      25  11  55 NW21G28   30.03S WCI  11
WAHPETON ARPT  NOT AVBL
$$

 *****  WEATHER ACROSS CENTRAL AND WESTERN NORTH DAKOTA  *****

CITY           SKY/WX    TMP DP  RH WIND       PRES   REMARKS
JAMESTOWN      FAIR      23   9  55 NW23      30.04S WCI   7
BISMARCK       FAIR      34  16  47 NW12G23   30.10F
MINOT          FAIR      26  10  50 W15       30.04F WCI  14
MINOT AFB      FAIR      24  10  54 NW14      30.02F WCI  12
GARRISON         N/A     26  14  60 W17       30.06F WCI  13
WILLISTON      FAIR      31  14  49 W10       30.08F WCI  22
DICKINSON      FAIR      31  17  56 W15       30.05S WCI  20
HETTINGER      PTSUNNY   35  17  47 W21       30.08F WCI  24
$$

 *****  OTHER OBSERVATIONS NORTHEAST NORTH DAKOTA  *****

CITY           SKY/WX    TMP DP  RH WIND       PRES   REMARKS
WALHALLA       FAIR      19   7  58 W14G21    30.00S WCI   6
LANGDON        FAIR      18   9  68 NW22G30   29.97S WCI   0
CAVALIER       FAIR      18   7  62 MISG      30.00S
GRAFTON        FAIR      18   9  68 NW21      30.05R WCI   1
CANDO          FAIR      18   7  62 W20G26    30.04S WCI   1
FORT TOTTEN      N/A     20   6  55 NW10      29.95S WCI   9
ROLLA          FAIR      18   3  53 NW14G21   29.99S WCI   4
RUGBY          FAIR      18   7  62 NW17      30.04S WCI   2
 ***** THE ABOVE OBSERVATIONS ARE NON NWS ARE NOT QUALITY
        CONTROLLED AND MAY MIS-REPORT RAIN FOR SNOW...
$$

 *****  OTHER OBSERVATIONS SOUTHEAST NORTH DAKOTA *****

CITY           SKY/WX    TMP DP  RH WIND       PRES   REMARKS
COOPERSTOWN    FAIR      19  10  68 NW23      30.03F WCI   2
VALLEY CITY    FLURRIES  21   9  58 NW18      30.06S WCI   6
OAKES            N/A     27   9  46 NW21      30.05S WCI  13
GWINNER          N/A     27  10  50 NW18      30.05R WCI  13
SHEYENNE NWR     N/A     25   9  49 NW15      29.95S WCI  13
BUFFALO          N/A     22   5  48 E20         N/A  WCI   7
WYNDMERE       NOT AVBL
 ***** THE ABOVE OBSERVATIONS ARE NON NWS ARE NOT QUALITY
       CONTROLLED AND MAY MIS-REPORT RAIN FOR SNOW...
$$

  *****  WEATHER ACROSS NORTHERN MINNESOTA  *****

CITY           SKY/WX    TMP DP  RH WIND       PRES   REMARKS
FLAG ISLAND    CLOUDY    16   7  67 W18       29.91R WCI  -1
WARROAD        FLURRIES  16   9  73 W12       29.93S WCI   3
ROSEAU         FLURRIES  18  10  73 W12G18    29.95S WCI   5
HALLOCK        FAIR      18  10  73 NW13      30.00S WCI   4
THF RVR FALLS  FLURRIES  16  10  77 W15       29.99R WCI   1
HALSTAD          N/A     22  10  62 NW18        N/A  WCI   7
FOSSTON        FLURRIES  16   9  73 W16G22    29.98R WCI   0
BAUDETTE       CLOUDY    17   9  70 NW16      29.90R WCI   2
WASKISH        CLOUDY    18  12  79 W14G21    29.88F WCI   4
CROOKSTON      PTSUNNY   19   9  63 NW15G21   30.03R WCI   5
$$
  *****  WEATHER ACROSS CENTRAL AND WEST MINNESOTA  *****

CITY           SKY/WX    TMP DP  RH WIND       PRES   REMARKS
BEMIDJI        LGT SNOW  18  11  76 NW15      29.92S WCI   3
PARK RAPIDS    FLURRIES  20  12  71 NW21      29.92R WCI   4
WADENA         MIX PCPN  19  12  73 W15G22    29.96R WCI   5
DETROIT LAKES  PTSUNNY   19  12  73 NW14      29.99S WCI   6
MOORHEAD       FAIR      25  10  54 NW17G23   30.03S WCI  11
FERGUS FALLS   FAIR      23  12  63 NW21G31   30.03S WCI   8
ELBOW LAKE     MOCLDY    23  13  65 W22       30.00S HAZE    WCI   8
MORRIS MN      FAIR      28  16  59 NW21G28   29.99R WCI  15
STAPLES        PTSUNNY   25  12  58 W17       29.92S WCI  11
WHEATON        FAIR      27  10  50 NW17      30.05R WCI  14
$$
  *****  WEATHER ELSEWHERE ACROSS MINNESOTA  *****

CITY           SKY/WX    TMP DP  RH WIND       PRES   REMARKS
DULUTH         FAIR      24  15  68 NW18G31   29.79R WCI  10
INTRNTL FALLS  LGT SNOW  19  10  68 W15G24    29.86R WCI   5
ELY            CLOUDY    21  16  79 NW7       29.79R WCI  13
CLOQUET        PTSUNNY   27  16  63 W14G23    29.81S WCI  15
BRAINERD       CLOUDY    25  13  60 NW18G26   29.91R WCI  11
HIBBING        CLOUDY    21  14  74 NW17      29.82R WCI   7
ALEXANDRIA     FAIR      26  14  60 NW15G29   29.95R WCI  14
SAINT CLOUD    FAIR      30  18  60 NW18G28   29.90R WCI  18
MINNEAPOLIS    FAIR      35  21  56 NW22G28   29.85R WCI  23
$$

  *****  WEATHER ACROSS SOUTH DAKOTA  *****

CITY           SKY/WX    TMP DP  RH WIND       PRES   REMARKS
SIOUX FALLS    FAIR      37  20  50 NW24G32   30.02R
BROOKINGS      FAIR      32  17  54 NW21G26   30.00R WCI  20
WATERTOWN      FAIR      30  15  53 NW21      30.00S WCI  17
HURON          FAIR      35  17  47 NW21      30.08F WCI  24
SISSETON         N/A     30  13  49 NW26G33   30.02S WCI  16
ABERDEEN       FAIR      32  14  47 NW17G29   30.07F WCI  21
MITCHELL       FAIR      36  18  48 NW20      30.10S
PIERRE         FAIR      35  21  56 NW17G26   30.12F WCI  25
MOBRIDGE       FAIR      34  17  50 NW15      30.08F WCI  24
RAPID CITY     CLOUDY    45  18  34 N18       30.12F
$$

  *****  SOME WEATHER IN NEARBY STATES *****

CITY           SKY/WX    TMP DP  RH WIND       PRES   REMARKS
GLASGOW MT     FAIR      33  19  56 SW8       30.06F
GREAT FALLS MT FAIR      42  18  37 SW31G40   30.10F
CHEYENNE WY    FAIR      37  15  40 W18G30    30.18F
SCOTTSBLUFF NE FAIR      44  12  27 NW14G24   30.19F
OMAHA NE       FAIR      47  30  51 NW24G38   29.99R
DES MOINES IA  FAIR      45  29  53 NW20G32   29.86R
DAVENPORT IA   CLOUDY    40  36  86 NW16G25   29.69R
CHICAGO IL     LGT RAIN  38  35  89 NW24G32   29.52R
EAU CLAIRE WI  FAIR      39  25  57 NW13G22   29.75R
LA CROSSE WI   FAIR      44  31  60 NW16      29.73R
$$

  *****  SOME NATIONAL WEATHER *****

CITY           SKY/WX    TMP DP  RH WIND       PRES   REMARKS
LA GUARDIA NY  LGT RAIN  52  39  61 S15G23    29.68F
RALEIGH NC     PTSUNNY   66  50  56 SW22G29   29.80F
ATLANTA GA     CLOUDY    67  58  72 SW14G24   29.82F
NEW ORLEANS LA PTSUNNY   81  66  60 S17G28    29.84F
OKLAHOMA CITY  FAIR      52  33  48 N30G40    30.13R
ALBUQUERQUE NM FAIR      48   4  16 NW7       30.32F
SALT LAKE CITY FAIR      41  21  44 VRB3      30.43F
LOS ANGELES CA FAIR      73  54  51 W10       30.12F
BOISE ID       FAIR      46  24  42 SE14      30.37F
SEATTLE WA     PTSUNNY   50  36  58 SW5       30.24F
$$

*** WEATHER ACROSS MANITOBA...SASKATCHEWAN AND ONTARIO ***
                ***ONTARIO***

CITY           SKY/WX    TMP DP  RH WIND       PRES   REMARKS
GERALDTON      LGT SNOW  18  14  86 N8        29.67S FOG     WCI   7
THUNDER BAY    CLOUDY    25  19  80 NW15      29.74R WCI  12
SIOUX LOOKOUT  LGT SNOW  18  12  79 NW9       29.76S WCI   6
TORONTO        DRZL/FOG  46  45  93 E5        29.34F VSB 3/4
BIG TROUT LK   CLOUDY    10   1  67 NW15G21   29.70R WCI  -6
PICKLE LAKE    FLURRIES  16   7  67 W12G17    29.70S WCI   3
DRYDEN         FLURRIES  18  10  73 W12       29.79R WCI   5
KENORA         SNOWSHWR  14   9  79 NW7       29.86R DRFTSNOWWCI   4
$$
                *** MANITOBA***

CITY           SKY/WX    TMP DP  RH WIND       PRES   REMARKS
BRANDON        MOSUNNY   12   3  67 W18G24    30.00S WCI  -5
DAUPHIN        SUNNY     12   5  73 W24G33    29.95F WCI  -8
ISLAND LAKE    LGT SNOW  10   3  72 W20G25    29.77S DRFTSNOWWCI  -8
PILOT MOUND      N/A     14   3  62 W14G20      N/A  WCI  -1
THE PAS        FLURRIES   9   1  72 W15G22    29.87  WCI  -8
THOMPSON       FLURRIES  10   3  72 W14G21    29.69S WCI  -5
WINNIPEG       MOSUNNY   14   5  67 W16       29.98R WCI  -2
LYNN LAKE      CLOUDY     9   3  78 W15G22    29.69R WCI  -8
CHURCHILL      LGT SNOW   3  -2  78 SW13G18   29.49S DRFTSNOWWCI -14
GILLAM         LGT SNOW   5  -2  72 W14G22    29.62  WCI -12
$$
                ***SASKATCHEWAN***

CITY           SKY/WX    TMP DP  RH WIND       PRES   REMARKS
ESTEVAN        PTSUNNY   19   9  63 W16       30.05F WCI   5
KINDERSLEY     MOSUNNY    9   5  85 SW10      29.94F WCI  -6
LLOYDMINSTER   PTSUNNY   16  10  79 S7        29.85F WCI   6
PRINCE ALBERT  MOSUNNY    9   0  66 SW5       29.98F WCI   0
REGINA         PTSUNNY   14   7  73 W7        30.00F WCI   4
YORKTON        MOSUNNY   12   3  67 W8        29.97F WC



USA.gov is the U.S. government's official web portal to all federal, state and local government web resources and services.